Date String (YYYY-MM-DD hh:mm:ss) UTC,Instrument flags,absolute air pressure of the measurement (hPa),sample flow rate (lpm),inlet stack bypass flow (lpm),air temperature of the measurement (°C),ambient temperature measured by the external sensor (°C),aerosol sample conditioner tube jacket temperature (°C),OPC LED temperature (°C),internal box temperature (°C),relative humidity of the measurement (%),span deviation,mass concentration of particles derived from Lorenz-Mie calculation of OPC scattering (μg/m³),mass concentration of particles derived from Lorenz-Mie calculation of OPC scattering (μg/m³),mass concentration of particles derived from Lorenz-Mie calculation of OPC scattering (μg/m³)
DateTimeUTC,F1_M11,P_M11,Q1_M11,Q2_M11,T1_M11,T2_M11,T3_M11,T4_M11,T5_M11,U1_M11,ZSPAN_M11,X0_M11,X2_M11,X1_M11
2024-01-01 10:00:00,SystemResetWarning,0831.2,5.00,000.00,020.2,019.1,000.0,028.6,021.5,15.7,0000.0,0011.96,0007.11,0006.52
2024-01-01 10:01:00,SystemResetWarning,0831.2,5.00,000.00,020.2,019.1,000.0,028.6,021.5,15.7,0000.7,0012.28,0007.11,0006.52
2024-01-01 10:02:00,SystemResetWarning,0831.2,5.00,000.00,020.2,019.0,000.0,028.6,021.5,15.6,0003.6,0012.14,0007.09,0006.53
2024-01-01 10:03:00,SystemResetWarning,0831.2,5.00,000.00,020.2,019.0,000.0,028.6,021.5,15.6,0001.3,0012.48,0007.07,0006.52
2024-01-01 10:04:00,SystemResetWarning,0831.2,5.00,000.00,020.2,019.0,000.0,028.6,021.5,15.5,0002.3,0012.28,0007.01,0006.49
2024-01-01 10:05:00,SystemResetWarning,0831.2,5.00,000.00,020.2,019.0,000.0,028.6,021.5,15.5,0002.4,0012.48,0007.00,0006.48
2024-01-01 10:06:00,SystemResetWarning,0831.2,5.00,000.00,020.2,019.0,000.0,028.5,021.4,15.5,0002.6,0012.52,0007.00,0006.48
2024-01-01 10:07:00,SystemResetWarning,0831.2,5.00,000.00,020.1,019.0,000.0,028.5,021.4,15.5,0002.8,0012.43,0007.06,0006.52
2024-01-01 10:08:00,SystemResetWarning,0831.2,5.00,000.00,020.1,019.0,000.0,028.5,021.4,15.6,0002.9,0011.79,0007.09,0006.56
2024-01-01 10:09:00,SystemResetWarning,0831.2,5.01,000.00,020.1,019.0,000.0,028.5,021.4,15.6,0003.2,0011.85,0007.10,0006.59
2024-01-01 10:10:00,SystemResetWarning,0831.1,5.00,000.00,020.1,018.9,000.0,028.5,021.4,15.5,0003.3,0011.94,0007.11,0006.62
2024-01-01 10:11:00,SystemResetWarning,0831.1,5.00,000.00,020.1,018.9,000.0,028.5,021.4,15.6,0003.5,0012.34,0007.14,0006.65
2024-01-01 10:12:00,SystemResetWarning,0831.1,5.00,000.00,020.1,018.9,000.0,028.5,021.4,15.6,0002.3,0012.48,0007.16,0006.66
2024-01-01 10:13:00,SystemResetWarning,0831.1,5.00,000.00,020.1,018.9,000.0,028.5,021.4,15.6,0000.0,0012.48,0007.15,0006.65
2024-01-01 10:14:00,SystemResetWarning,0831.1,5.00,000.00,020.1,018.9,000.0,028.5,021.4,15.6,0002.4,0012.09,0007.16,0006.65
2024-01-01 10:15:00,SystemResetWarning,0831.1,4.99,000.00,020.1,018.9,000.0,028.5,021.4,15.5,0001.9,0012.92,0007.17,0006.66
2024-01-01 10:16:00,SystemResetWarning,0831.1,5.01,000.00,020.1,018.9,000.0,028.5,021.4,15.5,0000.0,0012.73,0007.16,0006.67
2024-01-01 10:17:00,SystemResetWarning,0831.1,5.01,000.00,020.0,019.0,000.0,028.5,021.4,15.6,0000.9,0012.52,0007.18,0006.66
2024-01-01 10:18:00,SystemResetWarning,0831.1,5.00,000.00,020.0,019.0,000.0,028.4,021.4,15.6,0000.0,0012.57,0007.17,0006.65
2024-01-01 10:19:00,SystemResetWarning,0831.1,4.99,000.00,020.0,019.0,000.0,028.4,021.4,15.6,0000.0,0013.44,0007.18,0006.63
2024-01-01 10:20:00,SystemResetWarning,0831.1,4.99,000.00,020.0,019.0,000.0,028.4,021.4,15.7,0000.0,0013.65,0007.20,0006.63
2024-01-01 10:21:00,SystemResetWarning,0831.1,5.00,000.00,020.0,019.0,000.0,028.4,021.4,15.7,0000.0,0013.51,0007.20,0006.60
2024-01-01 10:22:00,SystemResetWarning,0831.0,5.00,000.00,020.0,019.0,000.0,028.4,021.4,15.7,0000.0,0013.79,0007.17,0006.57
2024-01-01 10:23:00,SystemResetWarning,0831.0,5.00,000.00,020.0,019.0,000.0,028.4,021.4,15.7,0000.0,0014.24,0007.15,0006.54
2024-01-01 10:24:00,SystemResetWarning,0831.0,5.00,000.00,020.0,019.0,000.0,028.4,021.4,15.7,0000.0,0014.41,0007.16,0006.51
2024-01-01 10:25:00,SystemResetWarning,0831.0,5.00,000.00,020.0,019.1,000.0,028.4,021.4,15.7,0000.0,0014.62,0007.16,0006.52
2024-01-01 10:26:00,SystemResetWarning,0831.0,5.00,000.00,020.0,019.0,000.0,028.4,021.3,15.7,0000.0,0013.80,0007.15,0006.48
2024-01-01 10:27:00,SystemResetWarning,0830.9,5.00,000.00,020.0,019.0,000.0,028.4,021.4,15.7,0000.0,0014.43,0007.16,0006.48
2024-01-01 10:28:00,SystemResetWarning,0831.0,5.01,000.00,020.0,019.0,000.0,028.4,021.3,15.6,0000.0,0014.43,0007.16,0006.50
2024-01-01 10:29:00,SystemResetWarning,0830.9,5.01,000.00,020.0,019.0,000.0,028.4,021.3,15.6,0000.0,0014.60,0007.20,0006.56
2024-01-01 10:30:00,SystemResetWarning,0830.9,5.00,000.00,020.0,019.0,000.0,028.4,021.3,15.5,0000.0,0014.07,0007.21,0006.58
2024-01-01 10:31:00,SystemResetWarning,0830.9,4.99,000.00,020.0,018.9,000.0,028.4,021.3,15.5,0000.0,0014.24,0007.21,0006.61
2024-01-01 10:32:00,SystemResetWarning,0830.9,5.00,000.00,020.0,018.9,000.0,028.4,021.3,15.5,0000.0,0014.49,0007.29,0006.69
2024-01-01 10:33:00,SystemResetWarning,0830.9,4.99,000.00,020.0,018.9,000.0,028.4,021.3,15.5,0000.0,0014.88,0007.43,0006.80
2024-01-01 10:34:00,SystemResetWarning,0830.9,5.00,000.00,020.0,018.8,000.0,028.3,021.3,15.5,0000.0,0014.08,0007.57,0006.90
2024-01-01 10:35:00,SystemResetWarning,0830.9,5.01,000.00,020.0,018.8,000.0,028.3,021.3,15.5,0000.0,0013.91,0007.62,0006.97
2024-01-01 10:36:00,SystemResetWarning,0830.9,5.01,000.00,020.0,018.8,000.0,028.3,021.3,15.4,0000.0,0013.72,0007.66,0007.03
2024-01-01 10:37:00,SystemResetWarning,0830.9,5.00,000.00,019.9,018.8,000.0,028.3,021.2,15.4,0000.0,0013.73,0007.73,0007.11
2024-01-01 10:38:00,SystemResetWarning,0830.9,4.99,000.00,019.9,018.8,000.0,028.3,021.2,15.5,0002.6,0013.10,0007.85,0007.20
2024-01-01 10:39:00,SystemResetWarning,0830.9,4.99,000.00,019.9,018.8,000.0,028.3,021.2,15.5,0003.7,0013.76,0007.92,0007.24
2024-01-01 10:40:00,SystemResetWarning,0830.9,5.01,000.00,019.9,018.8,000.0,028.3,021.2,15.6,0003.2,0013.82,0007.92,0007.22
2024-01-01 10:41:00,SystemResetWarning,0830.9,5.00,000.00,019.9,018.8,000.0,028.3,021.2,15.6,0001.8,0013.78,0007.92,0007.20
2024-01-01 10:42:00,SystemResetWarning,0830.8,5.01,000.00,019.9,018.8,000.0,028.3,021.2,15.6,0003.7,0013.30,0007.88,0007.17
2024-01-01 10:43:00,SystemResetWarning,0830.9,5.00,000.00,019.9,018.8,000.0,028.3,021.1,15.7,0002.2,0013.68,0007.82,0007.08
2024-01-01 10:44:00,SystemResetWarning,0830.8,5.00,000.00,019.9,018.7,000.0,028.3,021.2,15.7,0002.9,0013.49,0007.73,0006.99
2024-01-01 10:45:00,SystemResetWarning,0830.8,5.00,000.00,019.9,018.7,000.0,028.2,021.1,15.7,0002.9,0013.59,0007.57,0006.90
2024-01-01 10:46:00,SystemResetWarning,0830.8,5.00,000.00,019.8,018.7,000.0,028.2,021.1,15.8,0003.3,0013.77,0007.51,0006.86
2024-01-01 10:47:00,SystemResetWarning,0830.9,5.00,000.00,019.8,018.7,000.0,028.2,021.1,15.8,0003.3,0014.45,0007.43,0006.78
2024-01-01 10:48:00,SystemResetWarning,0830.9,5.00,000.00,019.8,018.7,000.0,028.2,021.1,15.9,0003.1,0015.84,0007.40,0006.72
2024-01-01 10:49:00,SystemResetWarning,0830.9,5.00,000.00,019.8,018.7,000.0,028.2,021.1,15.9,0002.7,0016.03,0007.31,0006.66
2024-01-01 10:50:00,SystemResetWarning,0830.8,5.00,000.00,019.8,018.7,000.0,028.2,021.1,15.9,0002.3,0016.24,0007.23,0006.61
2024-01-01 10:51:00,SystemResetWarning,0830.9,5.00,000.00,019.8,018.7,000.0,028.2,021.1,15.9,0000.9,0015.89,0007.23,0006.64
2024-01-01 10:52:00,SystemResetWarning,0830.9,5.00,000.00,019.8,018.7,000.0,028.2,021.1,16.0,0002.1,0015.95,0007.26,0006.69
2024-01-01 10:53:00,SystemResetWarning,0830.9,5.00,000.00,019.8,018.7,000.0,028.2,021.1,16.0,0002.1,0016.06,0007.36,0006.75
2024-01-01 10:54:00,SystemResetWarning,0830.8,5.01,000.00,019.8,018.7,000.0,028.2,021.1,16.0,0002.5,0015.66,0007.46,0006.85
2024-01-01 10:55:00,SystemResetWarning,0830.9,5.00,000.00,019.8,018.6,000.0,028.2,021.1,16.1,0002.7,0015.90,0007.57,0006.93
2024-01-01 10:56:00,SystemResetWarning,0830.9,5.00,000.00,019.8,018.6,000.0,028.2,021.1,16.1,0003.1,0015.80,0007.67,0007.01
2024-01-01 10:57:00,SystemResetWarning,0830.9,5.00,000.00,019.7,018.6,000.0,028.2,021.1,16.1,0003.0,0015.79,0007.77,0007.10
2024-01-01 10:58:00,SystemResetWarning,0830.8,5.00,000.00,019.7,018.6,000.0,028.1,021.0,16.1,0003.5,0015.51,0007.99,0007.26
2024-01-01 10:59:00,SystemResetWarning,0830.9,5.00,000.00,019.7,018.6,000.0,028.1,021.0,16.1,0003.7,0014.18,0008.11,0007.41
